sat.trackr.live / text

‹ back to catalog

STARLINK-35065

NORAD 65441 · 2025-194H

PAYLOAD ACTIVE UNKNOWN

§ Identity

Operator
Country
US
Launch date
2025-09-03
Launch site
AFWTR
Launch vehicle
Mass (kg)
RCS (m²)

Purposes: comms

External: N2YO · Heavens-Above · Gunter

§ Orbital elements

Epoch: 2026-09-20T12:40:13.532160Z

Period
93.91 min
Inclination
97.2863°
Eccentricity
0.0001973
Mean motion
15.33449583 rev/d
Perigee alt
464.2 km
Apogee alt
466.9 km
Semi-major
6,843.7 km
B*
3.7317e-4
RAAN
113.1953°
Arg perigee
84.5723°
Mean anomaly
275.5744°
Rev number
5,907

§ Raw data

STARLINK-350651 65441U 25194H   26263.52793440  .00011994  00000+0  37317-3 0  99912 65441  97.2863 113.1953 0001973  84.5723 275.5744 15.33449583 59079

JSON: /api/v1/satellites/65441 · /tle

For live sub-satellite position, see the globe view (requires WebGL).

§ Visibility from observer

Set your observer location to see the next 7 days of passes ≥ 10°. The values pass through the URL so the page stays shareable.

No JS? Fill the form by hand. The geolocation button needs JavaScript.